Wind_Speed
14 16 17 14 14 15 15 18 22 26 27 27 29 32 32 32 33 33 32 33 32 31 30 27 24 23 21 19 19 17 15 14 12 10 9 8 8 8 8 7 7 6 6 5 5 5 6 7 5 4 4 5 6 6 6 6 7 8 7 7 7 8 9
13 14 15 14 13 14 16 19 24 26 27 29 31 32 32 33 34 34 33 33 33 32 31 29 26 26 24 21 20 19 17 15 12 11 10 9 9 10 7 7 8 7 6 5 5 5 4 3 2 3 5 6 7 7 7 8 9 9 8 8 7 8 9
13 13 15 15 14 14 16 19 23 27 29 30 32 32 33 34 36 36 36 34 33 32 31 29 28 27 25 23 23 21 18 15 14 14 12 9 9 9 8 8 8 7 6 6 5 4 3 3 4 6 7 7 8 8 8 9 11 11 9 9 8 8 9
13 12 15 16 15 14 16 19 23 27 30 32 34 35 35 36 37 37 37 36 34 33 32 31 29 28 26 25 25 22 19 17 16 15 12 9 9 10 10 10 9 8 8 8 7 4 4 5 5 7 8 8 8 8 9 10 11 10 9 8 8 9 10
14 12 13 15 13 13 14 17 23 27 29 32 35 36 36 37 37 36 36 36 36 34 33 32 30 29 27 26 25 23 20 19 17 15 12 10 10 12 12 10 10 10 10 10 8 6 6 6 7 9 9 8 9 9 9 10 10 10 9 9 10 10 11
14 12 13 14 13 13 14 17 24 29 31 33 35 35 35 35 35 35 36 36 36 34 33 32 31 30 27 26 25 23 21 20 19 16 14 12 12 13 12 11 12 13 12 12 10 9 9 9 10 10 9 9 9 9 9 10 11 11 11 11 12 12 11
12 11 12 14 13 13 14 17 24 29 30 32 34 33 33 34 34 35 35 36 36 34 34 33 31 30 29 26 24 23 22 21 20 17 15 15 14 14 13 13 14 15 15 13 11 11 11 12 11 10 10 10 10 10 10 11 12 12 12 13 14 13 12
10 10 10 11 12 13 13 15 20 26 28 29 31 31 32 33 34 34 35 35 35 35 35 34 33 31 30 27 25 23 23 22 20 18 16 15 16 15 15 15 16 16 16 15 13 13 13 14 13 11 11 12 12 12 12 12 13 12 12 13 15 14 14
10 11 11 10 12 12 11 14 20 25 27 28 30 32 33 33 33 34 35 36 35 34 35 35 34 32 30 29 26 24 24 22 20 18 16 16 17 16 16 16 17 16 16 17 16 16 16 16 14 13 13 14 14 15 14 14 14 13 13 14 14 14 14
9 11 12 11 12 12 11 14 18 20 22 26 28 30 31 32 33 34 35 35 35 35 36 35 34 33 31 29 27 25 23 22 21 18 16 17 17 17 17 17 19 19 18 18 18 18 16 14 12 12 13 14 15 17 17 15 13 14 15 15 14 14 14
10 10 11 11 12 11 10 11 13 15 19 24 27 30 31 32 32 33 35 36 34 34 36 35 34 34 32 30 28 26 24 23 21 19 17 18 19 19 19 18 18 16 12 12 15 15 13 10 9 10 11 12 14 15 15 14 11 12 13 15 14 14 15
10 10 11 12 12 11 11 11 11 14 19 24 26 28 31 31 32 33 34 35 35 35 36 35 33 34 33 31 29 27 25 24 23 20 19 20 20 20 21 20 17 12 6 7 10 10 9 9 10 10 10 11 10 9 10 11 11 12 13 14 15 14 15
9 10 11 13 13 12 12 11 11 14 18 23 26 28 31 31 32 33 33 34 35 35 35 34 34 35 33 31 29 28 27 25 22 21 20 21 21 20 19 18 15 12 8 7 8 8 9 9 9 9 10 10 9 10 12 13 13 13 14 15 15 14 14
9 10 10 11 11 12 14 13 12 12 16 21 25 27 29 30 31 32 33 35 35 36 36 34 34 35 34 32 30 29 28 25 21 21 22 22 22 20 19 17 15 14 12 10 10 10 9 8 8 10 12 12 13 15 14 13 12 12 12 13 13 14 15
9 9 10 11 11 12 14 14 13 12 14 20 24 25 26 28 29 30 32 33 32 33 36 35 36 37 35 32 31 29 27 24 22 23 23 23 22 20 19 18 16 15 15 15 14 13 11 9 10 12 14 15 16 14 12 12 13 13 12 13 13 14 14
8 8 9 10 10 11 13 15 15 15 15 18 23 26 26 26 28 30 31 32 30 31 34 37 39 39 36 32 30 28 27 25 25 26 25 25 23 21 20 18 17 15 15 15 14 13 12 12 13 13 15 16 16 13 13 14 15 14 14 13 13 13 13
5 5 6 8 9 9 11 13 15 15 15 18 24 26 27 28 29 27 24 24 25 27 34 40 40 37 36 32 26 23 25 27 27 26 28 27 24 22 21 18 17 15 14 14 14 14 15 15 15 15 15 16 16 15 15 15 15 15 16 15 14 14 14
3 0 2 5 8 9 10 11 12 13 15 19 23 25 27 26 19 16 16 16 17 20 29 36 37 35 32 24 17 18 23 25 25 24 26 26 23 22 20 18 16 15 15 15 16 17 17 17 16 16 16 15 15 14 14 15 16 17 18 17 15 14 14
2 2 3 4 6 10 10 9 10 12 16 21 25 26 26 22 23 25 25 28 29 29 30 30 28 25 19 12 8 19 23 23 24 24 23 24 23 21 19 17 17 17 17 17 18 18 18 18 17 16 17 16 15 15 15 16 17 17 16 17 16 14 13
4 4 5 5 5 7 10 11 10 13 18 23 23 22 23 25 29 33 36 39 40 39 34 28 23 20 14 6 11 21 25 26 26 25 25 25 23 21 19 19 18 18 18 19 19 19 18 18 16 16 16 17 16 16 16 16 16 15 14 14 15 14 13
6 5 6 6 7 8 8 9 11 14 16 16 18 25 29 31 34 35 34 34 32 28 25 23 21 18 12 13 20 25 28 29 28 27 27 26 24 22 21 20 19 20 20 20 19 19 17 16 15 15 15 16 16 16 16 14 14 15 14 13 13 13 13
6 6 7 7 9 10 7 9 15 14 11 19 24 27 29 30 31 30 28 28 26 22 20 20 18 13 13 22 26 28 30 29 28 28 28 26 24 23 22 21 21 21 21 21 19 18 17 16 16 16 16 17 17 16 13 10 11 12 12 13 16 16 14
7 5 5 4 6 6 6 6 7 13 24 29 29 29 29 31 33 33 31 30 29 26 22 20 21 23 25 27 28 29 30 28 28 28 27 25 25 23 23 22 22 21 21 21 19 18 17 16 16 17 18 18 16 12 9 10 12 13 13 14 15 14 12
6 2 1 3 6 10 17 20 23 27 27 24 21 19 21 25 29 33 34 33 32 29 26 26 29 31 29 27 28 29 30 29 29 29 28 27 27 26 25 24 22 20 19 19 18 15 13 13 16 17 15 11 9 8 9 12 15 17 18 15 10 8 9
6 6 7 12 19 25 31 36 35 30 25 23 23 20 17 17 19 20 20 23 23 23 25 29 32 32 30 28 29 30 30 30 30 29 30 30 29 28 27 25 22 19 18 16 14 10 9 10 12 12 9 7 8 9 11 14 15 17 16 12 7 7 11
7 7 9 18 27 30 33 35 32 27 26 27 27 25 22 21 22 19 16 18 22 22 25 29 32 31 29 29 31 32 31 31 31 31 32 31 31 29 28 25 21 17 15 12 9 6 7 8 8 6 6 8 11 13 14 15 15 14 11 8 6 8 9
4 8 15 24 29 29 29 30 30 29 29 30 31 30 27 26 26 25 24 25 26 27 29 29 28 26 27 29 31 31 31 31 32 33 33 31 30 28 26 22 18 14 10 7 4 4 7 10 9 7 7 10 12 14 14 13 12 10 7 5 5 6 6
6 11 19 25 29 29 28 26 27 28 28 29 31 32 31 29 26 26 26 23 21 23 23 21 22 25 29 31 30 29 29 30 30 31 31 28 27 25 21 17 14 11 7 4 3 7 10 11 10 8 8 9 11 12 12 10 10 8 5 4 4 4 5
8 11 16 19 21 26 27 23 22 25 26 28 30 30 31 29 25 22 19 16 16 18 18 21 26 30 30 29 27 26 26 25 25 26 25 23 22 20 16 12 9 7 4 2 9 13 13 9 8 7 8 8 8 8 8 7 8 6 4 4 5 5 6
7 10 14 16 17 22 26 23 21 23 26 28 30 31 30 27 22 18 15 13 14 17 18 20 21 20 19 17 15 15 15 16 16 17 18 18 17 15 13 10 7 3 3 9 14 15 12 9 8 7 5 5 5 5 5 5 5 5 5 5 5 5 8
7 9 11 13 15 20 25 26 25 24 25 27 30 31 30 24 18 16 16 16 16 16 17 16 14 14 13 11 10 11 12 14 15 16 16 16 14 13 11 9 4 2 8 10 11 13 12 11 9 5 3 3 3 3 4 4 4 5 6 6 6 7 9
7 10 12 12 13 16 20 24 24 23 22 23 24 24 24 21 18 19 17 14 12 11 11 10 10 12 12 9 10 13 15 17 19 18 16 14 13 12 9 5 1 5 6 7 9 10 10 8 6 5 3 3 3 2 3 4 5 6 6 6 6 8 9
4 7 11 14 16 18 19 20 21 20 20 19 19 20 21 19 18 16 13 12 10 9 8 7 8 12 13 13 14 16 19 20 18 14 13 12 12 9 5 3 4 5 6 7 7 6 4 2 3 4 4 4 5 4 4 6 7 6 6 7 7 8 8
4 6 10 14 17 18 18 19 19 21 21 20 18 18 18 16 12 11 13 14 10 8 9 8 7 10 13 14 16 16 16 15 13 12 13 12 9 5 3 2 3 5 9 9 7 6 4 3 4 4 3 5 6 5 5 7 7 6 6 8 8 7 6
7 8 11 15 17 19 18 18 17 18 18 16 12 9 8 6 5 8 13 14 10 9 11 11 10 11 11 11 11 11 10 11 13 15 14 9 7 7 8 7 8 9 10 8 6 4 4 4 5 5 4 6 7 6 6 7 6 6 7 7 7 5 4
9 10 12 15 19 21 22 20 18 17 16 14 12 12 12 13 12 10 10 10 9 10 13 13 12 11 10 10 9 9 10 12 14 14 13 11 12 13 11 9 9 8 8 6 4 3 2 2 4 4 5 6 6 5 5 4 5 5 5 4 3 2 4
9 10 11 14 15 16 17 17 17 19 19 17 17 18 16 15 14 8 6 8 11 14 14 13 14 11 8 9 12 15 17 16 15 16 18 17 16 15 13 12 11 8 7 7 5 4 3 2 2 3 3 4 4 3 2 2 2 1 2 2 3 4 6
10 11 13 13 14 14 14 15 17 19 19 18 19 20 18 12 5 8 13 14 15 16 14 13 13 10 7 9 13 18 19 16 14 17 19 17 16 16 16 16 15 12 10 8 7 5 5 4 4 4 3 1 1 1 1 2 3 3 3 3 4 4 4
Wind_Direction
160 169 174 174 173 173 175 174 172 173 174 174 173 173 173 173 175 176 177 179 179 179 181 183 183 184 183 183 186 187 187 193 198 199 198 198 203 202 201 208 212 214 227 241 242 247 272 287 292 294 292 295 300 300 297 293 294 298 302 305 311 317 320
168 169 174 174 172 172 175 174 173 174 175 175 175 175 174 175 176 178 179 181 182 182 183 182 183 186 185 182 185 188 189 194 198 199 200 201 208 217 220 213 213 222 235 241 240 244 264 284 277 274 288 298 301 300 297 293 294 296 292 291 299 308 311
177 169 170 176 175 171 175 175 174 176 176 176 177 177 177 178 179 180 180 181 182 182 183 183 184 187 187 185 186 187 189 194 197 197 198 204 215 223 214 202 215 233 233 233 235 235 251 269 270 277 292 302 303 301 300 298 299 297 290 286 291 299 306
180 170 166 175 177 171 174 177 177 179 179 180 180 180 180 180 182 182 182 183 183 182 183 184 186 188 188 186 185 185 187 190 194 197 201 212 218 216 207 207 226 239 232 229 229 236 262 266 267 278 286 290 295 298 299 301 303 300 294 291 292 296 301
174 164 161 172 175 172 176 178 178 179 180 182 183 183 182 181 181 182 182 184 184 185 185 186 188 189 189 188 186 186 189 190 191 196 201 207 210 210 209 216 234 239 234 233 235 246 251 246 260 277 281 283 290 293 295 300 304 305 302 295 292 293 295
172 163 165 174 177 177 178 179 181 180 180 182 183 183 182 180 179 181 182 183 185 185 185 187 190 191 189 188 185 185 189 191 191 193 197 202 209 212 213 220 230 233 233 236 240 243 243 252 271 280 281 285 292 295 295 293 292 295 297 293 291 293 292
165 162 169 176 176 178 179 180 184 182 181 181 181 181 180 180 180 180 181 183 184 184 184 187 191 191 188 186 185 186 190 191 191 192 195 200 207 212 216 224 230 232 236 240 241 239 244 259 272 277 276 279 285 289 289 288 285 285 286 286 289 290 286
153 158 174 178 175 177 178 179 182 182 181 180 179 180 181 181 180 180 181 183 183 183 184 187 190 190 188 187 187 189 189 188 188 188 191 200 208 214 220 228 234 236 239 242 244 244 249 259 265 270 270 272 279 281 280 284 285 281 274 275 284 286 282
156 166 176 176 177 177 178 182 182 180 179 179 180 183 183 181 180 181 183 183 183 183 184 188 189 188 188 187 187 188 187 189 191 190 195 205 211 216 221 229 238 241 243 244 244 245 250 255 257 260 263 266 274 277 277 282 282 278 269 268 279 286 283
165 175 181 180 185 187 182 183 182 179 179 180 182 184 183 182 182 182 183 184 184 183 184 187 188 186 185 186 188 188 187 191 195 193 197 206 212 217 222 232 243 246 247 246 243 244 249 253 253 259 265 269 276 279 276 275 276 276 270 266 276 287 286
174 181 186 188 193 194 186 181 183 183 183 184 185 187 186 185 184 183 185 185 184 183 185 187 186 183 183 185 187 186 188 193 195 192 197 207 213 218 223 231 239 244 244 233 231 237 242 247 255 265 272 277 285 287 278 271 275 283 277 270 275 284 287
174 177 182 191 198 200 194 189 187 187 187 187 187 188 188 187 187 187 186 185 184 185 185 185 184 182 182 184 184 185 190 195 194 193 199 208 214 220 226 230 233 240 239 203 203 221 235 250 261 268 277 283 290 297 290 287 290 292 288 280 277 283 287
168 175 180 187 192 199 200 194 191 191 191 190 189 189 190 189 188 188 186 183 183 185 184 182 181 180 181 183 183 186 193 196 196 198 204 211 216 220 225 229 232 240 245 224 218 239 258 266 268 276 286 286 289 297 298 298 295 290 288 283 279 281 285
163 176 183 185 185 192 198 199 198 193 190 191 192 191 190 189 189 189 186 183 182 182 182 181 179 177 180 183 184 190 195 196 198 202 208 214 217 219 223 228 231 235 241 247 256 269 278 278 277 285 288 286 289 293 292 292 291 286 285 284 281 280 283
164 175 187 192 187 185 192 197 195 191 192 194 194 192 190 190 191 192 187 183 181 180 179 178 175 176 179 181 185 192 196 197 200 205 209 213 216 219 222 224 225 232 244 255 264 273 281 283 283 283 281 282 286 284 282 291 295 287 283 284 281 278 280
172 181 190 200 202 193 191 193 193 192 191 192 194 194 191 189 192 193 188 183 183 180 176 175 174 175 178 179 185 193 197 199 202 206 209 211 213 217 219 221 225 234 245 253 260 267 270 274 279 278 277 280 280 275 280 291 291 282 280 282 280 274 271
159 183 194 205 212 207 198 196 196 193 190 194 197 193 191 194 196 191 183 179 180 176 171 171 172 174 175 175 182 193 196 198 202 206 209 211 211 214 218 221 227 232 240 247 254 259 260 265 271 273 275 276 275 276 280 284 284 283 284 284 282 275 268
98 334 251 211 210 216 217 208 196 194 194 198 197 192 193 194 177 145 133 143 157 162 165 167 167 168 167 162 173 194 195 194 198 202 205 206 208 213 216 219 222 228 235 244 251 255 256 259 264 268 271 270 271 277 280 282 286 288 289 290 288 283 277
151 240 263 245 216 211 217 219 207 201 199 200 199 195 190 171 138 133 146 156 161 163 163 161 156 152 143 128 176 210 207 200 200 202 204 207 210 212 215 219 224 231 239 245 250 253 254 256 260 265 268 265 265 274 280 283 287 290 294 296 293 288 284
193 218 246 261 245 216 213 220 220 210 204 203 195 178 166 155 151 158 165 164 163 162 156 150 139 129 126 147 226 226 217 208 206 208 211 213 214 215 217 221 228 235 241 245 247 251 254 256 259 266 268 265 265 273 279 284 289 292 295 295 288 283 283
190 202 224 239 250 243 220 209 217 218 208 188 157 145 150 156 157 157 156 152 149 144 138 134 125 119 144 214 234 227 214 208 208 210 213 215 215 214 216 222 230 236 240 244 247 251 254 255 260 269 273 272 272 272 275 284 292 292 292 294 289 280 280
189 207 228 236 238 240 230 213 214 204 152 119 122 136 148 148 142 135 128 126 126 121 120 126 131 144 198 223 225 217 209 206 207 209 212 213 211 213 218 221 228 234 239 243 245 249 253 256 262 269 272 275 276 273 273 288 300 298 299 306 301 284 274
170 197 228 218 208 232 280 263 202 134 113 119 133 145 144 137 132 129 127 131 139 142 143 154 173 194 212 222 221 215 208 206 208 210 212 212 210 214 219 220 225 232 237 241 243 248 257 265 269 268 269 274 275 272 277 288 293 293 295 302 300 282 270
155 140 96 86 74 46 43 59 81 94 106 116 115 112 112 116 128 137 139 142 148 153 162 181 195 204 214 223 222 215 208 208 211 213 214 215 214 216 218 219 222 227 231 237 243 251 265 276 274 268 269 275 274 273 285 292 295 298 296 293 289 281 289
110 91 82 78 76 76 82 92 100 107 114 109 98 96 101 108 118 124 126 134 148 166 181 192 201 208 217 225 222 214 209 210 213 216 217 217 216 216 217 217 217 224 232 238 243 254 277 285 276 268 271 284 286 290 300 306 311 311 304 292 285 297 307
112 112 88 81 87 94 102 109 115 120 123 125 131 141 151 151 139 127 132 154 173 193 202 202 206 214 221 224 219 212 210 212 213 216 218 217 215 216 217 216 216 220 225 227 232 254 282 287 285 287 298 300 299 304 310 318 323 321 307 296 302 311 315
84 93 90 95 100 102 105 114 125 133 139 145 147 152 162 166 157 157 172 185 192 203 211 212 217 223 224 219 213 208 211 214 215 216 217 217 217 216 214 211 209 205 201 203 224 276 288 288 293 305 311 306 307 311 314 319 326 322 303 296 311 314 310
47 67 87 103 110 112 115 122 130 137 143 147 149 158 169 172 170 176 187 194 200 208 216 223 227 226 218 211 208 208 211 214 215 217 217 214 211 206 198 194 195 194 189 190 271 286 281 283 293 307 311 307 310 317 320 319 319 315 296 281 295 297 294
74 82 95 106 116 123 128 131 133 137 142 146 152 163 169 169 173 182 187 195 205 208 209 211 214 215 214 210 209 212 215 216 216 214 209 202 194 186 177 173 174 173 158 353 312 290 276 278 295 304 304 307 314 325 327 319 314 312 291 266 275 287 298
70 93 113 124 131 134 132 133 138 143 146 151 159 165 167 170 179 186 179 169 169 169 170 176 184 190 194 194 195 202 206 204 199 193 186 179 172 163 151 141 139 138 347 326 303 281 271 285 296 285 285 302 315 331 340 329 313 298 272 261 273 294 307
67 86 110 126 137 139 133 134 140 143 147 158 167 171 174 177 174 163 152 143 141 142 142 142 145 146 146 148 153 161 166 167 165 163 162 160 157 150 137 127 126 300 308 300 277 262 266 280 275 249 239 272 287 323 343 327 293 270 261 267 287 303 311
90 100 107 115 131 136 131 132 138 141 147 160 168 170 174 173 153 138 135 137 141 145 142 140 139 130 124 134 155 162 163 161 157 154 154 151 147 145 145 148 225 293 289 270 259 258 263 264 241 210 211 232 235 264 298 273 256 256 266 286 305 311 314
93 116 121 122 130 133 129 128 133 136 140 149 147 139 140 142 136 131 138 147 149 140 129 131 139 135 138 155 166 164 164 163 159 154 152 152 154 160 180 241 286 285 257 241 236 228 219 199 181 190 207 219 223 230 237 236 239 254 282 305 318 318 321
89 115 124 124 126 130 130 128 131 134 137 140 136 128 129 136 138 141 147 149 145 134 131 141 156 155 156 164 167 166 164 167 173 174 167 161 164 176 194 206 213 212 209 207 200 189 180 167 169 179 195 211 217 217 212 221 238 267 297 311 316 318 330
111 114 119 121 126 131 129 125 127 129 131 134 134 127 125 129 140 154 150 142 135 140 147 153 159 162 160 162 167 172 168 162 165 166 164 163 162 159 160 165 174 184 189 191 196 199 203 205 203 208 219 218 214 207 201 213 248 289 306 311 314 321 349
127 125 129 131 136 140 139 137 132 124 121 127 120 100 85 77 77 98 126 133 141 153 155 155 157 160 165 167 169 171 164 158 160 165 170 176 171 162 158 161 168 175 179 180 182 177 178 206 216 217 221 218 213 211 217 240 281 301 309 317 327 21 59
135 134 141 141 139 137 138 138 131 121 122 128 120 109 101 85 73 86 136 162 170 167 162 163 165 165 166 170 175 176 171 168 173 178 178 179 178 171 161 153 151 153 155 151 139 123 123 135 148 165 197 219 228 242 269 296 318 339 359 19 73 92 82
154 147 148 150 148 140 135 137 134 129 131 131 121 115 109 94 95 199 194 178 170 167 163 166 170 167 148 144 160 173 177 179 186 185 181 181 182 177 169 159 149 141 136 134 129 121 120 119 119 128 142 176 257 308 59 82 77 66 54 62 85 95 85
Height
745 748 750 752 754 757 759 761 765 769 772 776 779 782 785 787 789 792 794 797 799 801 803 805 807 809 810 811 813 814 815 816 817 818 819 819 820 821 821 821 822 823 823 824 825 825 826 826 826 826 826 826 826 825 825 825 825 825 824 824 824 823 823
743 746 747 749 752 755 756 758 762 765 768 772 775 779 781 783 786 788 791 794 796 798 801 802 805 807 807 808 810 812 813 815 816 817 818 819 820 820 821 821 821 822 823 823 823 824 824 825 825 825 825 825 825 824 824 824 824 823 823 823 823 823 822
740 743 744 746 748 750 753 755 759 761 764 768 771 774 777 779 782 784 787 791 794 796 798 801 803 804 805 806 807 809 811 813 814 815 816 817 818 819 820 821 821 822 822 822 822 823 823 824 824 824 824 824 824 823 823 823 822 822 822 822 822 821 821
737 738 740 743 744 746 749 751 754 757 760 763 765 769 772 775 778 781 784 787 790 793 795 798 800 802 803 803 804 807 808 810 812 813 815 816 817 818 819 820 820 821 821 821 821 822 822 823 823 823 823 822 822 822 822 822 821 821 820 820 820 820 819
735 736 739 742 742 745 746 747 750 753 756 759 761 765 767 771 775 778 782 785 787 790 792 796 798 799 801 801 802 805 806 808 809 811 813 814 815 816 817 819 819 819 819 819 820 820 821 821 821 821 821 821 821 821 821 821 820 820 819 819 819 818 818
732 734 736 738 739 742 741 743 745 747 751 755 757 761 764 768 772 774 778 782 785 788 790 794 796 797 799 800 801 803 804 806 807 808 811 812 814 815 816 817 818 818 818 818 819 819 819 819 820 820 820 819 820 819 819 819 819 819 818 818 817 816 816
730 732 733 734 735 737 737 739 742 744 748 751 755 759 762 765 768 771 775 778 781 785 788 791 793 795 797 798 800 801 803 804 805 806 808 810 812 813 814 816 816 816 817 817 817 817 817 818 818 818 818 818 818 818 817 817 817 817 817 816 815 815 814
728 730 732 732 731 733 735 736 739 742 745 749 752 756 758 761 764 768 771 774 777 781 784 787 790 792 794 796 798 799 801 803 804 804 806 808 810 811 813 814 814 814 815 816 816 816 816 816 816 817 816 816 816 816 815 815 815 815 814 814 813 813 812
726 728 728 729 729 730 731 733 735 739 742 745 748 751 754 757 760 763 766 770 773 777 780 784 786 788 791 794 796 798 799 801 803 803 805 807 809 810 811 812 812 813 814 814 814 815 815 815 815 815 815 814 814 814 813 813 812 812 812 812 812 811 810
725 727 726 727 727 727 728 730 733 736 739 742 745 747 750 753 756 759 762 765 769 772 776 779 782 785 789 792 794 796 798 799 800 801 802 805 807 808 809 810 810 811 811 811 812 813 813 814 814 814 813 813 812 812 811 811 810 810 810 810 810 809 808
724 726 726 727 726 726 728 730 731 734 736 738 741 743 746 749 752 755 758 761 765 769 773 776 779 782 786 789 792 793 795 797 798 798 799 803 805 806 808 808 808 809 809 809 810 811 812 812 812 812 811 811 811 810 809 809 809 808 808 808 807 807 806
724 725 726 727 726 726 727 728 730 730 732 735 737 739 743 746 749 751 754 757 761 765 769 773 777 780 784 787 789 791 793 794 795 795 797 800 803 805 806 806 807 808 807 807 808 810 810 810 810 810 810 810 809 808 808 808 807 807 806 805 805 805 804
721 722 723 724 723 725 725 726 728 728 729 732 733 736 739 741 745 748 750 754 758 762 767 771 775 779 782 785 786 788 790 791 792 793 795 799 801 803 804 804 806 806 805 806 807 808 808 809 809 808 808 808 807 807 806 806 805 805 804 803 803 803 802
719 721 721 721 722 724 724 725 726 726 727 729 731 734 736 739 742 744 747 751 755 760 765 769 774 777 780 782 783 786 788 788 790 792 795 798 799 801 802 802 804 804 804 804 805 806 807 807 807 807 807 806 806 805 805 804 803 802 802 801 801 801 800
719 720 721 720 720 720 720 721 722 723 725 726 728 731 733 736 739 741 745 749 754 758 761 765 770 773 776 778 780 783 785 786 788 791 794 796 798 799 800 800 801 802 802 802 803 804 805 805 805 805 805 804 804 803 803 802 801 800 799 799 799 798 798
718 719 720 719 718 717 717 717 717 718 720 722 725 727 730 733 735 738 743 748 753 757 758 761 765 768 771 774 776 779 780 782 785 789 792 794 796 797 798 798 799 799 800 801 801 803 803 803 803 803 803 802 802 802 801 800 799 798 797 797 796 796 796
715 716 718 718 717 716 715 714 713 714 716 718 720 723 727 730 733 737 743 750 756 758 757 758 761 765 768 770 773 776 778 779 783 787 790 792 794 795 795 796 796 797 798 799 799 800 801 801 801 800 800 800 800 800 799 798 798 797 796 795 794 794 793
713 714 715 715 716 715 714 713 713 713 713 715 717 721 725 729 734 741 747 753 758 760 760 759 760 764 766 769 776 780 779 780 783 786 788 790 792 792 793 794 794 795 796 797 797 798 798 798 798 798 798 798 798 797 797 796 796 795 794 793 793 792 791
711 712 711 713 713 713 713 712 711 711 711 712 715 718 723 728 733 737 741 744 749 753 757 759 761 765 768 773 781 784 781 780 783 785 787 788 789 790 791 791 792 793 794 794 795 795 795 795 795 795 795 795 795 795 794 794 794 793 792 792 791 791 790
709 709 708 709 709 709 709 708 708 709 709 710 714 718 723 726 728 730 732 735 741 745 750 754 759 764 769 775 781 783 782 781 782 784 786 787 788 788 788 789 789 790 791 792 793 793 793 793 792 792 793 792 792 792 791 791 791 790 790 789 788 788 787
706 706 707 707 705 704 705 705 706 707 708 711 715 717 720 722 723 727 732 736 743 748 751 755 759 763 770 775 777 778 780 780 781 783 784 785 786 786 786 786 787 788 789 790 790 790 790 790 790 790 790 790 790 789 788 788 788 787 787 786 786 786 785
702 703 704 703 702 701 701 701 703 705 709 714 717 719 721 723 725 730 735 739 745 751 756 760 762 766 770 773 773 775 777 778 780 781 782 783 783 783 783 784 784 786 787 787 788 788 788 788 788 787 788 788 787 786 786 786 785 785 784 784 784 783 782
696 698 699 698 698 699 699 700 703 707 712 715 716 718 719 722 725 729 734 738 743 749 755 758 760 762 765 768 770 772 774 776 778 779 780 780 780 780 780 781 782 784 784 785 785 785 785 785 785 785 785 785 785 784 784 783 782 781 781 781 781 781 780
692 694 695 696 698 699 701 705 709 715 719 721 724 728 729 731 732 731 732 735 740 747 751 753 756 757 759 763 767 769 771 773 775 776 777 777 777 777 777 778 780 781 781 782 782 783 783 783 783 784 783 783 783 782 781 780 779 779 779 777 777 778 778
692 693 695 696 698 701 704 707 711 716 721 725 732 737 741 744 745 743 743 744 749 753 752 750 752 754 756 760 764 766 768 770 772 773 773 773 773 773 774 775 777 778 778 779 780 781 781 781 781 782 782 781 780 779 779 778 777 777 777 776 776 776 776
694 694 695 698 701 703 704 707 710 715 719 723 727 731 737 742 743 745 748 749 751 754 751 749 750 751 754 758 761 763 765 766 768 768 768 769 770 771 772 773 774 776 776 777 778 779 780 780 780 780 779 779 778 777 777 776 775 775 775 774 775 775 774
695 694 696 701 703 703 705 707 709 712 716 720 723 727 734 739 739 738 741 743 745 748 748 749 750 752 755 758 758 760 761 762 764 764 764 766 767 768 770 771 772 773 774 775 777 777 778 779 778 777 777 776 776 775 775 774 773 773 773 773 774 774 773
696 698 700 702 702 702 705 708 709 712 716 719 723 726 731 736 737 736 738 741 743 745 747 748 751 753 755 756 756 757 758 759 760 761 762 763 764 766 768 769 770 771 772 773 775 775 776 777 776 775 775 774 774 774 774 773 773 772 773 773 773 773 772
699 702 703 704 704 704 705 709 712 714 717 719 722 725 728 732 734 735 738 740 740 743 745 746 748 751 753 752 753 754 756 757 758 759 760 761 762 764 766 768 769 771 771 772 774 775 774 774 773 773 772 772 773 772 772 772 772 772 772 772 772 771 771
701 703 703 704 705 705 705 709 713 715 717 718 719 723 728 730 732 734 736 737 738 740 743 743 745 748 749 750 751 752 754 755 756 758 759 760 762 764 765 767 768 769 770 771 773 773 772 771 771 771 771 771 771 771 771 771 771 771 771 771 770 770 769
703 704 704 705 706 705 705 708 711 715 717 718 719 723 727 729 731 733 734 736 737 739 740 742 744 745 746 748 750 751 752 754 755 757 758 759 761 762 764 765 766 767 768 768 769 770 769 769 770 770 770 770 770 770 770 770 769 770 770 769 769 768 767
704 705 705 706 708 708 708 709 712 715 717 719 721 723 726 729 731 731 733 735 737 738 738 740 741 743 745 748 749 750 751 752 754 756 757 758 759 760 761 763 764 764 764 765 766 768 768 768 769 768 769 769 768 769 769 768 768 769 768 767 767 766 765
706 705 705 706 708 710 710 711 714 716 718 721 723 723 725 727 728 728 730 733 734 736 737 739 741 742 744 747 749 750 750 751 753 754 755 757 758 759 760 760 760 761 762 764 766 767 767 767 768 767 768 767 767 767 768 767 767 767 766 766 765 764 764
706 705 706 707 708 709 710 710 712 714 716 720 722 723 724 725 726 727 729 731 733 734 737 740 743 743 744 745 747 748 749 750 751 752 754 755 756 757 757 757 758 760 762 764 765 765 766 766 767 766 766 766 766 766 766 766 766 765 764 764 763 763 762
707 707 707 707 708 709 710 711 712 714 717 720 721 723 724 725 726 728 729 730 732 734 737 740 741 742 743 744 745 746 747 749 750 751 752 753 754 755 756 757 759 760 762 763 764 764 765 765 765 765 765 764 764 765 764 764 764 764 763 762 761 761 761
707 707 708 708 708 709 709 711 713 715 718 720 721 722 724 725 727 729 731 732 734 735 737 738 739 740 741 742 743 745 746 747 749 750 751 752 753 754 756 758 759 760 761 762 763 763 764 764 764 764 763 763 763 763 763 763 763 763 762 761 760 760 760
707 707 708 709 710 710 711 712 714 716 719 721 721 721 723 725 728 733 736 736 736 736 736 737 738 739 740 740 741 743 744 746 748 749 750 751 752 753 755 756 758 759 760 761 762 762 763 763 762 762 763 763 763 763 763 763 763 762 761 760 759 759 759
707 707 709 710 710 712 713 714 715 717 719 721 721 722 724 727 732 737 739 737 735 735 735 736 737 738 738 740 741 742 743 745 746 747 748 749 750 751 753 755 757 758 760 761 761 762 762 762 762 762 762 763 763 763 763 763 762 762 761 760 759 759 759